Coolangatta, Queensland

7:51 PM AEST on August 29, 2016 (GMT +1000)
Coolangatta

Weather History for YBCG - September, 2013

Change the Weather History Date:

Wednesday, September 11, 2013

  Actual Average (YBBN) Record (YBBN)
Temperature  
Mean Temperature 74 °F -  
Max Temperature 89 °F 72 °F 80 °F (2013)
Min Temperature 60 °F 52 °F 44 °F (2011)
Cooling Degree Days 10    
Growing Degree Days 24 (Base 50)    
Moisture  
Dew Point 56 °F    
Average Humidity 62    
Maximum Humidity 88    
Minimum Humidity 19    
Precipitation  
Precipitation 0.00 in - - ()
Sea Level Pressure  
Sea Level Pressure 29.86 in    
Wind  
Wind Speed 9 mph ()    
Max Wind Speed 16 mph    
Max Gust Speed 22 mph    
Visibility 6.2 miles    
Events      
Averages and records for this station are not official NWS values.
T = Trace of Precipitation, MM = Missing Value Source: Averaged Metar Reports

Daily Weather History Graph

Daily Weather History Graph

Search for Another Location

Airport or City:

Trip Planner

Search our weather history database for the weather conditions in past years. The results will help you decide how hot, cold, wet, or windy it might be!

Date:

Astronomy

Sep. 11, 2013 Rise Set
Actual Time 5:48 AM AEST 5:36 PM AEST
Civil Twilight 5:25 AM AEST 6:00 PM AEST
Nautical Twilight 4:58 AM AEST 6:27 PM AEST
Astronomical Twilight 4:31 AM AEST 6:54 PM AEST
Moon 9:22 AM AEST (9/11) 11:13 PM AEST (9/11)
Length of Visible Light 12h 34m
Length of Day
11h 47m
Waxing Crescent, 32% of the Moon is Illuminated
Sep 11
Waxing Crescent
Sep 13
First Quarter
Sep 19
Full
Sep 27
Last Quarter
Oct 5
New

Hourly Weather History & Observations

Time (AEST) Temp. Heat Index Dew Point Humidity Pressure Visibility Wind Dir Wind Speed Gust Speed Precip Events Conditions
12:00 AM 66 °F - 60 °F 77% 29.89 in - NW 10.4 mph - -  
12:00 AM 66.2 °F - 60.8 °F 83% 29.89 in 6.2 mi NW 10.4 mph - N/A   Unknown
12:30 AM 64.4 °F - 60.8 °F 88% 29.86 in 6.2 mi NW 9.2 mph - N/A   Unknown
1:00 AM 64.4 °F - 59.0 °F 83% 29.86 in 6.2 mi NNW 9.2 mph - N/A   Unknown
1:30 AM 62.6 °F - 59.0 °F 88% 29.86 in 6.2 mi NNW 9.2 mph - N/A   Unknown
2:00 AM 64.4 °F - 59.0 °F 83% 29.86 in 6.2 mi NNW 9.2 mph - N/A   Unknown
2:30 AM 64.4 °F - 59.0 °F 83% 29.83 in 6.2 mi NNW 10.4 mph - N/A   Unknown
3:00 AM 64 °F - 57 °F 72% 29.85 in - NNW 10.4 mph - -  
3:00 AM 64.4 °F - 57.2 °F 77% 29.83 in 6.2 mi NNW 10.4 mph - N/A   Unknown
3:30 AM 64.4 °F - 57.2 °F 77% 29.83 in 6.2 mi NNW 9.2 mph - N/A   Unknown
4:00 AM 62.6 °F - 57.2 °F 82% 29.83 in 6.2 mi North 8.1 mph - N/A   Unknown
4:30 AM 62.6 °F - 57.2 °F 82% 29.83 in 6.2 mi NW 9.2 mph - N/A   Unknown
5:00 AM 64.4 °F - 55.4 °F 73% 29.86 in 6.2 mi NNW 10.4 mph - N/A   Unknown
5:30 AM 64.4 °F - 53.6 °F 68% 29.86 in 6.2 mi NNW 10.4 mph - N/A   Unknown
6:00 AM 62 °F - 53 °F 64% 29.87 in - NNW 3.5 mph - -  
6:00 AM 62.6 °F - 53.6 °F 72% 29.86 in 6.2 mi NNW 3.5 mph - N/A   Unknown
6:30 AM 66.2 °F - 53.6 °F 64% 29.86 in 6.2 mi NW 9.2 mph - N/A   Unknown
7:00 AM 68.0 °F - 51.8 °F 56% 29.89 in 6.2 mi NW 8.1 mph - N/A   Unknown
7:30 AM 71.6 °F - 51.8 °F 50% 29.89 in 6.2 mi NNW 8.1 mph - N/A   Unknown
8:00 AM 73.4 °F - 53.6 °F 50% 29.89 in 6.2 mi NNW 8.1 mph - N/A   Unknown
8:30 AM 75.2 °F - 55.4 °F 50% 29.89 in 6.2 mi North 12.7 mph - N/A   Unknown
9:00 AM 79 °F - 53 °F 29% 29.90 in - NW 9.2 mph - -  
9:00 AM 78.8 °F - 53.6 °F 42% 29.89 in 6.2 mi NW 9.2 mph - N/A   Unknown
9:30 AM 82.4 °F - 50.0 °F 32% 29.89 in 6.2 mi WNW 9.2 mph - N/A   Unknown
10:00 AM 82.4 °F - 48.2 °F 30% 29.89 in 6.2 mi WNW 11.5 mph - N/A   Unknown
10:30 AM 84.2 °F - 50.0 °F 30% 29.86 in 6.2 mi WNW 12.7 mph - N/A   Unknown
11:00 AM 86.0 °F - 48.2 °F 27% 29.86 in 6.2 mi WNW 10.4 mph - N/A   Unknown
11:30 AM 87.8 °F - 48.2 °F 25% 29.83 in 6.2 mi WNW 11.5 mph - N/A   Unknown
12:00 PM 87 °F - 51 °F 19% 29.83 in - NNW 13.8 mph - -  
12:00 PM 86.0 °F - 50.0 °F 29% 29.83 in 6.2 mi NNW 13.8 mph - N/A   Unknown
12:30 PM 84.2 °F 83.0 °F 55.4 °F 37% 29.80 in 6.2 mi North 16.1 mph - N/A   Unknown
1:00 PM 86.0 °F 85.4 °F 59.0 °F 40% 29.77 in 6.2 mi North 16.1 mph - N/A   Unknown
1:30 PM 89.6 °F - 46.4 °F 22% 29.77 in 6.2 mi NNW 15.0 mph - N/A   Unknown
2:00 PM 87.8 °F - 51.8 °F 29% 29.77 in 6.2 mi South 8.1 mph 21.9 mph N/A   Unknown
2:30 PM 84.2 °F 83.8 °F 59.0 °F 42% 29.77 in 6.2 mi South 15.0 mph - N/A   Unknown
3:00 PM 81 °F - 58 °F 34% 29.79 in - SSE 13.8 mph - -  
3:00 PM 80.6 °F 80.8 °F 57.2 °F 45% 29.77 in 6.2 mi SSE 13.8 mph - N/A   Unknown
3:30 PM 78.8 °F - 59.0 °F 51% 29.77 in 6.2 mi SSE 15.0 mph - N/A   Unknown
4:00 PM 77.0 °F - 62.6 °F 61% 29.80 in 6.2 mi SSE 13.8 mph - N/A   Unknown
4:30 PM 75.2 °F - 62.6 °F 65% 29.80 in 6.2 mi SSE 13.8 mph - N/A   Unknown
5:00 PM 73.4 °F - 62.6 °F 69% 29.83 in 6.2 mi SSE 13.8 mph - N/A   Unknown
5:30 PM 71.6 °F - 64.4 °F 78% 29.83 in 6.2 mi SSE 8.1 mph - N/A   Unknown
6:00 PM 71 °F - 65 °F 75% 29.87 in - South 8.1 mph - -  
6:00 PM 69.8 °F - 64.4 °F 83% 29.86 in 6.2 mi South 8.1 mph - N/A   Unknown
6:30 PM 69.8 °F - 64.4 °F 83% 29.86 in 6.2 mi SSW 6.9 mph - N/A   Unknown
7:00 PM 69.8 °F - 59.0 °F 68% 29.89 in 6.2 mi South 8.1 mph - N/A   Unknown
7:30 PM 68.0 °F - 59.0 °F 73% 29.89 in 6.2 mi South 6.9 mph - N/A   Unknown
8:00 PM 68.0 °F - 57.2 °F 68% 29.92 in 6.2 mi SSW 5.8 mph - N/A   Unknown
8:30 PM 68.0 °F - 57.2 °F 68% 29.92 in 6.2 mi SW 5.8 mph - N/A   Unknown
9:00 PM 66 °F - 58 °F 69% 29.94 in - SSW 4.6 mph - -  
9:00 PM 66.2 °F - 59.0 °F 78% 29.92 in 6.2 mi SSW 4.6 mph - N/A   Unknown
9:30 PM 62.6 °F - 57.2 °F 82% 29.92 in 6.2 mi Calm Calm - N/A   Unknown
10:00 PM 60.8 °F - 55.4 °F 82% 29.92 in 6.2 mi South 5.8 mph - N/A   Unknown
10:30 PM 62.6 °F - 57.2 °F 82% 29.92 in 6.2 mi South 2.3 mph - N/A   Unknown
11:00 PM 64.4 °F - 57.2 °F 77% 29.92 in 6.2 mi South 5.8 mph - N/A   Unknown
11:21 PM 62.6 °F - 57.2 °F 82% 29.92 in 6.2 mi Calm Calm - N/A   Mostly Cloudy
11:30 PM 60.8 °F - 55.4 °F 82% 29.92 in 6.2 mi SSE 4.6 mph - N/A   Scattered Clouds
11:34 PM 60.8 °F - 55.4 °F 82% 29.92 in 6.2 mi SSE 4.6 mph - N/A   Scattered Clouds